Augusta, ME

9:50 AM EST on February 23, 2017 (GMT -0500)
Augusta State

Weather History for KAUG - January, 2013

Change the Weather History Date:

Saturday, January 19, 2013

  Actual Average Record
Temperature  
Mean Temperature 20 °F 19 °F  
Max Temperature 32 °F 27 °F 57 °F (1972)
Min Temperature 8 °F 10 °F -15 °F (1976)
Degree Days  
Heating Degree Days 45 46  
Month to date heating degree days 865  
Since 1 July heating degree days 3620  
Cooling Degree Days 0 0  
Month to date cooling degree days 0  
Year to date cooling degree days 0  
Moisture  
Dew Point 13 °F    
Average Humidity 67    
Maximum Humidity 93    
Minimum Humidity 52    
Precipitation  
Precipitation 0.00 in 0.08 in 0.94 in (1996)
Month to date precipitation 1.59  
Year to date precipitation 1.59  
Sea Level Pressure  
Sea Level Pressure 30.08 in    
Wind  
Wind Speed 5 mph (SSW)    
Max Wind Speed 12 mph    
Max Gust Speed 20 mph    
Visibility 8 miles    
Events Snow    
T = Trace of Precipitation, MM = Missing Value Source: NWS Daily Summary

Daily Weather History Graph

Daily Weather History Graph

Search for Another Location

Airport or City:

Trip Planner

Search our weather history database for the weather conditions in past years. The results will help you decide how hot, cold, wet, or windy it might be!

Date:

Astronomy

Jan. 19, 2013 Rise Set
Actual Time 7:09 AM EST 4:31 PM EST
Civil Twilight 6:37 AM EST 5:03 PM EST
Nautical Twilight 6:01 AM EST 5:38 PM EST
Astronomical Twilight 5:26 AM EST 6:13 PM EST
Moon 10:58 AM EST (1/19) 12:36 AM EST (1/19)
Length of Visible Light 10h 26m
Length of Day
9h 22m
First Quarter, 57% of the Moon is Illuminated
Jan 19
First Quarter
Jan 26
Full
Feb 3
Last Quarter
Feb 10
New
Feb 17
First Quarter

Hourly Weather History & Observations

Time (EST) Temp. Windchill Dew Point Humidity Pressure Visibility Wind Dir Wind Speed Gust Speed Precip Events Conditions
12:53 AM 8.1 °F 1.4 °F -4.0 °F 58% 30.34 in 10.0 mi SSW 3.5 mph - N/A   Overcast
1:53 AM 10.0 °F 1.8 °F -2.9 °F 56% 30.33 in 10.0 mi SSW 4.6 mph - N/A   Overcast
2:53 AM 12.0 °F 4.1 °F -0.0 °F 59% 30.29 in 10.0 mi SSW 4.6 mph - N/A   Overcast
3:53 AM 12.9 °F 6.9 °F 1.0 °F 59% 30.24 in 10.0 mi South 3.5 mph - N/A   Overcast
4:53 AM 14.0 °F - 1.9 °F 59% 30.20 in 10.0 mi Calm Calm - N/A   Overcast
5:53 AM 18.0 °F 11.1 °F 5.0 °F 57% 30.17 in 10.0 mi SW 4.6 mph - N/A   Overcast
6:36 AM 19.4 °F 7.9 °F 10.4 °F 68% 30.14 in 2.5 mi SW 10.4 mph 19.6 mph 0.00 in Snow Light Snow
6:49 AM 19.4 °F 9.5 °F 12.2 °F 74% 30.14 in 1.5 mi SW 8.1 mph - 0.00 in Snow Light Snow
6:53 AM 19.0 °F 8.2 °F 14.0 °F 81% 30.16 in 1.5 mi SW 9.2 mph - 0.00 in Snow Light Snow
7:32 AM 19.4 °F 9.5 °F 17.6 °F 93% 30.13 in 0.8 mi SW 8.1 mph - 0.00 in Snow Light Snow
7:39 AM 19.4 °F 8.6 °F 17.6 °F 93% 30.13 in 1.2 mi SW 9.2 mph - 0.00 in Snow Light Snow
7:50 AM 19.4 °F 11.5 °F 17.6 °F 93% 30.12 in 2.5 mi SW 5.8 mph - 0.00 in Snow Light Snow
7:53 AM 19.9 °F 11.1 °F 17.1 °F 89% 30.14 in 3.0 mi SW 6.9 mph - 0.00 in Snow Light Snow
8:01 AM 21.2 °F 12.6 °F 17.6 °F 86% 30.12 in 5.0 mi SSW 6.9 mph - 0.00 in Snow Light Snow
8:53 AM 21.9 °F 13.4 °F 15.1 °F 75% 30.13 in 10.0 mi SSW 6.9 mph - 0.00 in   Overcast
9:53 AM 25.0 °F 14.2 °F 12.9 °F 60% 30.11 in 10.0 mi SW 11.5 mph 18.4 mph N/A   Overcast
10:53 AM 27.0 °F 17.3 °F 14.0 °F 58% 30.08 in 10.0 mi SSW 10.4 mph - N/A   Overcast
11:53 AM 28.9 °F 21.1 °F 15.1 °F 56% 30.04 in 10.0 mi SSW 8.1 mph - N/A   Overcast
12:53 PM 30.0 °F 22.4 °F 15.1 °F 54% 29.99 in 10.0 mi SSW 8.1 mph - N/A   Overcast
1:53 PM 32.0 °F 28.7 °F 16.0 °F 52% 29.99 in 10.0 mi WSW 3.5 mph - N/A   Mostly Cloudy
2:53 PM 32.0 °F - 16.0 °F 52% 29.99 in 10.0 mi Calm Calm - N/A   Mostly Cloudy
3:53 PM 32.0 °F - 17.1 °F 54% 29.97 in 8.0 mi Calm Calm - N/A   Overcast
4:53 PM 30.9 °F 27.5 °F 17.1 °F 57% 29.97 in 10.0 mi NNE 3.5 mph - N/A   Mostly Cloudy
5:53 PM 30.0 °F - 18.0 °F 61% 29.98 in 10.0 mi Calm Calm - N/A   Mostly Cloudy
6:53 PM 30.9 °F 27.5 °F 18.0 °F 59% 29.97 in 10.0 mi SSE 3.5 mph - N/A   Scattered Clouds
7:53 PM 28.9 °F - 18.0 °F 64% 29.97 in 10.0 mi Calm Calm - N/A   Partly Cloudy
8:53 PM 28.9 °F - 19.9 °F 69% 29.96 in 10.0 mi Calm Calm - N/A   Overcast
9:53 PM 30.0 °F - 19.9 °F 66% 29.94 in 10.0 mi Calm Calm - N/A   Overcast
10:53 PM 30.0 °F - 21.0 °F 69% 29.91 in 10.0 mi Calm Calm - N/A   Overcast
11:53 PM 28.4 °F - 21.2 °F 74% 29.85 in 10.0 mi Calm Calm - N/A   Overcast